Directory Listing
Index of /dewikiversity/20260301/

Index of /dewikiversity/20260301/


../
dewikiversity-20260301-all-titles-in-ns0.gz        01-Mar-2026 13:43    452K
dewikiversity-20260301-all-titles.gz               01-Mar-2026 13:43      1M
dewikiversity-20260301-babel.sql.gz                01-Mar-2026 13:28    3407
dewikiversity-20260301-category.sql.gz             01-Mar-2026 13:27    231K
dewikiversity-20260301-categorylinks.sql.gz        01-Mar-2026 13:27      3M
dewikiversity-20260301-change_tag.sql.gz           01-Mar-2026 13:28      2M
dewikiversity-20260301-change_tag_def.sql.gz       01-Mar-2026 13:28    1448
dewikiversity-20260301-externallinks.sql.gz        01-Mar-2026 13:27      2M
dewikiversity-20260301-geo_tags.sql.gz             01-Mar-2026 13:27     884
dewikiversity-20260301-image.sql.gz                01-Mar-2026 13:27      3M
dewikiversity-20260301-imagelinks.sql.gz           01-Mar-2026 13:27    704K
dewikiversity-20260301-iwlinks.sql.gz              01-Mar-2026 13:27    851K
dewikiversity-20260301-langlinks.sql.gz            01-Mar-2026 13:27    115K
dewikiversity-20260301-linktarget.sql.gz           01-Mar-2026 13:27      4M
dewikiversity-20260301-md5sums.json                01-Mar-2026 14:13    3182
dewikiversity-20260301-md5sums.txt                 01-Mar-2026 14:13    2972
dewikiversity-20260301-page.sql.gz                 01-Mar-2026 13:27      5M
dewikiversity-20260301-page_props.sql.gz           01-Mar-2026 13:27    705K
dewikiversity-20260301-page_restrictions.sql.gz    01-Mar-2026 13:27    5862
dewikiversity-20260301-pagelinks.sql.gz            01-Mar-2026 13:27      3M
dewikiversity-20260301-pages-articles-multistre..> 01-Mar-2026 13:35      1M
dewikiversity-20260301-pages-articles-multistre..> 01-Mar-2026 13:35     49M
dewikiversity-20260301-pages-articles.xml.bz2      01-Mar-2026 13:30     44M
dewikiversity-20260301-pages-articles.xml.bz2.i..> 01-Mar-2026 13:29      3M
dewikiversity-20260301-pages-logging.xml.gz        01-Mar-2026 13:44      6M
dewikiversity-20260301-pages-meta-current.xml.bz2  01-Mar-2026 13:39     62M
dewikiversity-20260301-pages-meta-current.xml.b..> 01-Mar-2026 13:38      5M
dewikiversity-20260301-pages-meta-history.xml.7z   01-Mar-2026 14:13    194M
dewikiversity-20260301-pages-meta-history.xml.bz2  01-Mar-2026 14:09      1G
dewikiversity-20260301-protected_titles.sql.gz     01-Mar-2026 13:27    1036
dewikiversity-20260301-redirect.sql.gz             01-Mar-2026 13:27     31K
dewikiversity-20260301-runsettings.txt             01-Mar-2026 13:06      28
dewikiversity-20260301-sha1sums.json               01-Mar-2026 14:13    3487
dewikiversity-20260301-sha1sums.txt                01-Mar-2026 14:13    3276
dewikiversity-20260301-site_stats.sql.gz           01-Mar-2026 13:27     846
dewikiversity-20260301-siteinfo-namespaces.json.gz 01-Mar-2026 13:43    6652
dewikiversity-20260301-siteinfo2-namespacesv2.j..> 01-Mar-2026 13:43    6908
dewikiversity-20260301-sites.sql.gz                01-Mar-2026 13:28     23K
dewikiversity-20260301-stub-articles.xml.gz        01-Mar-2026 13:26     10M
dewikiversity-20260301-stub-meta-current.xml.gz    01-Mar-2026 13:26     12M
dewikiversity-20260301-stub-meta-history.xml.gz    01-Mar-2026 13:26     67M
dewikiversity-20260301-templatelinks.sql.gz        01-Mar-2026 13:27      6M
dewikiversity-20260301-user_former_groups.sql.gz   01-Mar-2026 13:27    1090
dewikiversity-20260301-user_groups.sql.gz          01-Mar-2026 13:27    1032
dewikiversity-20260301-wbc_entity_usage.sql.gz     01-Mar-2026 13:28    246K
dumpruninfo.json                                   01-Mar-2026 14:13    2562
dumpruninfo.txt                                    01-Mar-2026 14:13    2202
dumpspecialfiles.json                              01-Mar-2026 14:13     134
dumpstatus.json                                    01-Mar-2026 14:13     12K
md5sums-dewikiversity-20260301-all-titles-in-ns..> 01-Mar-2026 13:43      78
md5sums-dewikiversity-20260301-all-titles.gz.txt   01-Mar-2026 13:43      71
md5sums-dewikiversity-20260301-babel.sql.gz.txt    01-Mar-2026 13:28      70
md5sums-dewikiversity-20260301-category.sql.gz.txt 01-Mar-2026 13:27      73
md5sums-dewikiversity-20260301-categorylinks.sq..> 01-Mar-2026 13:27      78
md5sums-dewikiversity-20260301-change_tag.sql.g..> 01-Mar-2026 13:28      75
md5sums-dewikiversity-20260301-change_tag_def.s..> 01-Mar-2026 13:28      79
md5sums-dewikiversity-20260301-externallinks.sq..> 01-Mar-2026 13:27      78
md5sums-dewikiversity-20260301-geo_tags.sql.gz.txt 01-Mar-2026 13:28      73
md5sums-dewikiversity-20260301-image.sql.gz.txt    01-Mar-2026 13:27      70
md5sums-dewikiversity-20260301-imagelinks.sql.g..> 01-Mar-2026 13:27      75
md5sums-dewikiversity-20260301-iwlinks.sql.gz.txt  01-Mar-2026 13:27      72
md5sums-dewikiversity-20260301-langlinks.sql.gz..> 01-Mar-2026 13:27      74
md5sums-dewikiversity-20260301-linktarget.sql.g..> 01-Mar-2026 13:27      75
md5sums-dewikiversity-20260301-page.sql.gz.txt     01-Mar-2026 13:27      69
md5sums-dewikiversity-20260301-page_props.sql.g..> 01-Mar-2026 13:27      75
md5sums-dewikiversity-20260301-page_restriction..> 01-Mar-2026 13:27      82
md5sums-dewikiversity-20260301-pagelinks.sql.gz..> 01-Mar-2026 13:27      74
md5sums-dewikiversity-20260301-pages-articles-m..> 01-Mar-2026 13:35      98
md5sums-dewikiversity-20260301-pages-articles-m..> 01-Mar-2026 13:35      92
md5sums-dewikiversity-20260301-pages-articles.x..> 01-Mar-2026 13:30      80
md5sums-dewikiversity-20260301-pages-logging.xm..> 01-Mar-2026 13:44      78
md5sums-dewikiversity-20260301-pages-meta-curre..> 01-Mar-2026 13:39      84
md5sums-dewikiversity-20260301-pages-meta-histo..> 01-Mar-2026 14:13      83
md5sums-dewikiversity-20260301-pages-meta-histo..> 01-Mar-2026 14:09      84
md5sums-dewikiversity-20260301-protected_titles..> 01-Mar-2026 13:27      81
md5sums-dewikiversity-20260301-redirect.sql.gz.txt 01-Mar-2026 13:27      73
md5sums-dewikiversity-20260301-site_stats.sql.g..> 01-Mar-2026 13:27      75
md5sums-dewikiversity-20260301-siteinfo-namespa..> 01-Mar-2026 13:43      85
md5sums-dewikiversity-20260301-siteinfo2-namesp..> 01-Mar-2026 13:43      88
md5sums-dewikiversity-20260301-sites.sql.gz.txt    01-Mar-2026 13:28      70
md5sums-dewikiversity-20260301-stub-articles.xm..> 01-Mar-2026 13:26      78
md5sums-dewikiversity-20260301-stub-meta-curren..> 01-Mar-2026 13:26      82
md5sums-dewikiversity-20260301-stub-meta-histor..> 01-Mar-2026 13:26      82
md5sums-dewikiversity-20260301-templatelinks.sq..> 01-Mar-2026 13:27      78
md5sums-dewikiversity-20260301-user_former_grou..> 01-Mar-2026 13:27      83
md5sums-dewikiversity-20260301-user_groups.sql...> 01-Mar-2026 13:27      76
md5sums-dewikiversity-20260301-wbc_entity_usage..> 01-Mar-2026 13:28      81
report.json                                        01-Mar-2026 14:13    6583
sha1sums-dewikiversity-20260301-all-titles-in-n..> 01-Mar-2026 13:43      86
sha1sums-dewikiversity-20260301-all-titles.gz.txt  01-Mar-2026 13:43      79
sha1sums-dewikiversity-20260301-babel.sql.gz.txt   01-Mar-2026 13:28      78
sha1sums-dewikiversity-20260301-category.sql.gz..> 01-Mar-2026 13:27      81
sha1sums-dewikiversity-20260301-categorylinks.s..> 01-Mar-2026 13:27      86
sha1sums-dewikiversity-20260301-change_tag.sql...> 01-Mar-2026 13:28      83
sha1sums-dewikiversity-20260301-change_tag_def...> 01-Mar-2026 13:28      87
sha1sums-dewikiversity-20260301-externallinks.s..> 01-Mar-2026 13:27      86
sha1sums-dewikiversity-20260301-geo_tags.sql.gz..> 01-Mar-2026 13:28      81
sha1sums-dewikiversity-20260301-image.sql.gz.txt   01-Mar-2026 13:27      78
sha1sums-dewikiversity-20260301-imagelinks.sql...> 01-Mar-2026 13:27      83
sha1sums-dewikiversity-20260301-iwlinks.sql.gz.txt 01-Mar-2026 13:27      80
sha1sums-dewikiversity-20260301-langlinks.sql.g..> 01-Mar-2026 13:27      82
sha1sums-dewikiversity-20260301-linktarget.sql...> 01-Mar-2026 13:27      83
sha1sums-dewikiversity-20260301-page.sql.gz.txt    01-Mar-2026 13:27      77
sha1sums-dewikiversity-20260301-page_props.sql...> 01-Mar-2026 13:27      83
sha1sums-dewikiversity-20260301-page_restrictio..> 01-Mar-2026 13:27      90
sha1sums-dewikiversity-20260301-pagelinks.sql.g..> 01-Mar-2026 13:27      82
sha1sums-dewikiversity-20260301-pages-articles-..> 01-Mar-2026 13:35     106
sha1sums-dewikiversity-20260301-pages-articles-..> 01-Mar-2026 13:35     100
sha1sums-dewikiversity-20260301-pages-articles...> 01-Mar-2026 13:30      88
sha1sums-dewikiversity-20260301-pages-logging.x..> 01-Mar-2026 13:44      86
sha1sums-dewikiversity-20260301-pages-meta-curr..> 01-Mar-2026 13:39      92
sha1sums-dewikiversity-20260301-pages-meta-hist..> 01-Mar-2026 14:13      91
sha1sums-dewikiversity-20260301-pages-meta-hist..> 01-Mar-2026 14:09      92
sha1sums-dewikiversity-20260301-protected_title..> 01-Mar-2026 13:27      89
sha1sums-dewikiversity-20260301-redirect.sql.gz..> 01-Mar-2026 13:27      81
sha1sums-dewikiversity-20260301-site_stats.sql...> 01-Mar-2026 13:27      83
sha1sums-dewikiversity-20260301-siteinfo-namesp..> 01-Mar-2026 13:43      93
sha1sums-dewikiversity-20260301-siteinfo2-names..> 01-Mar-2026 13:43      96
sha1sums-dewikiversity-20260301-sites.sql.gz.txt   01-Mar-2026 13:28      78
sha1sums-dewikiversity-20260301-stub-articles.x..> 01-Mar-2026 13:26      86
sha1sums-dewikiversity-20260301-stub-meta-curre..> 01-Mar-2026 13:26      90
sha1sums-dewikiversity-20260301-stub-meta-histo..> 01-Mar-2026 13:26      90
sha1sums-dewikiversity-20260301-templatelinks.s..> 01-Mar-2026 13:27      86
sha1sums-dewikiversity-20260301-user_former_gro..> 01-Mar-2026 13:27      91
sha1sums-dewikiversity-20260301-user_groups.sql..> 01-Mar-2026 13:27      84
sha1sums-dewikiversity-20260301-wbc_entity_usag..> 01-Mar-2026 13:28      89
status.html                                        01-Mar-2026 14:13     121
tableinfo.json                                     01-Mar-2026 09:00    1530